SKW5777 KDEN-KILM

Flight info

Callsign SKW5777
Flight time N/A
Altitude 3000
Route
Aircraft CRJ2/M-SBDE1E2E3FGHIJ4J5J7M3RWXYZ/LB1V1D1

Departure

Time N/A
Airport Denver International Airport (KDEN)

Arrival

Time 2026-05-05 01:45
Airport Wilmington International Airport (KILM)
Time Latitude Longitude Altitude Speed Heading
2026-05-05 01:34 34.40196 -77.95240 2186 ft 214 kts 169°
2026-05-05 01:34 34.38723 -77.94874 2118 ft 213 kts 171°
2026-05-05 01:34 34.37241 -77.94633 2117 ft 212 kts 177°
2026-05-05 01:34 34.35763 -77.94516 2119 ft 211 kts 178°
2026-05-05 01:35 34.34319 -77.94110 2022 ft 212 kts 157°
2026-05-05 01:35 34.33181 -77.93317 2176 ft 164 kts 151°
2026-05-05 01:35 34.32253 -77.92596 1796 ft 142 kts 155°
2026-05-05 01:35 34.31428 -77.92232 1493 ft 124 kts 169°
2026-05-05 01:36 34.30587 -77.91966 958 ft 127 kts 169°
2026-05-05 01:36 34.29770 -77.91636 572 ft 121 kts 162°
2026-05-05 01:36 34.28965 -77.91286 276 ft 122 kts 161°
2026-05-05 01:36 34.28145 -77.90925 65 ft 123 kts 161°
2026-05-05 01:37 34.27232 -77.90485 460 ft 159 kts 159°
2026-05-05 01:37 34.26236 -77.89981 1275 ft 149 kts 160°
2026-05-05 01:37 34.25317 -77.89465 1531 ft 155 kts 158°
2026-05-05 01:37 34.24354 -77.88653 1698 ft 179 kts 128°
2026-05-05 01:38 34.24235 -77.87171 1708 ft 182 kts 77°
2026-05-05 01:38 34.24634 -77.85753 1733 ft 170 kts 70°
2026-05-05 01:38 34.25479 -77.84762 1457 ft 173 kts 20°
2026-05-05 01:38 34.26602 -77.84691 1412 ft 154 kts 341°
2026-05-05 01:39 34.27724 -77.85121 1409 ft 178 kts 340°
2026-05-05 01:39 34.28882 -77.85565 1532 ft 160 kts 335°
2026-05-05 01:39 34.29623 -77.86299 1401 ft 129 kts 295°
2026-05-05 01:39 34.29774 -77.87337 997 ft 134 kts 263°
2026-05-05 01:40 34.29690 -77.88499 949 ft 129 kts 260°
2026-05-05 01:40 34.29558 -77.89532 716 ft 123 kts 251°
2026-05-05 01:40 34.29189 -77.90461 514 ft 119 kts 234°
2026-05-05 01:40 34.28539 -77.90982 163 ft 121 kts 186°
2026-05-05 01:41 34.27728 -77.90741 39 ft 110 kts 160°
2026-05-05 01:41 34.26838 -77.90341 203 ft 170 kts 161°
2026-05-05 01:41 34.25616 -77.89804 1172 ft 201 kts 159°
2026-05-05 01:41 34.24653 -77.88950 2207 ft 164 kts 117°
2026-05-05 01:42 34.24761 -77.87523 2037 ft 185 kts 59°
2026-05-05 01:42 34.25536 -77.86252 1885 ft 188 kts 36°
2026-05-05 01:42 34.26785 -77.85928 1733 ft 184 kts 345°
2026-05-05 01:42 34.27926 -77.86534 1651 ft 171 kts 334°
2026-05-05 01:43 34.29078 -77.87007 1313 ft 174 kts 337°
2026-05-05 01:43 34.30216 -77.87519 1143 ft 176 kts 336°
2026-05-05 01:43 34.31331 -77.88098 1036 ft 166 kts 320°
2026-05-05 01:43 34.31811 -77.89216 945 ft 138 kts 264°
2026-05-05 01:44 34.31627 -77.90282 947 ft 131 kts 248°
2026-05-05 01:44 34.31053 -77.91081 1028 ft 120 kts 205°
2026-05-05 01:44 34.30279 -77.91381 746 ft 116 kts 191°
2026-05-05 01:44 34.29444 -77.91416 395 ft 121 kts 171°
2026-05-05 01:45 34.28628 -77.91137 140 ft 122 kts 162°
2026-05-05 01:45 34.27828 -77.90782 37 ft 112 kts 160°
2026-05-05 01:45 34.27187 -77.90490 32 ft 75 kts 161°
2026-05-05 01:45 34.26911 -77.90397 30 ft 31 kts 188°
2026-05-05 01:46 34.26786 -77.90528 30 ft 23 kts 231°
2026-05-05 01:46 34.26672 -77.90682 30 ft 25 kts 229°
2026-05-05 01:46 34.26673 -77.90789 30 ft 13 kts 327°
2026-05-05 01:46 34.26703 -77.90855 30 ft 6 kts 258°
2026-05-05 01:47 34.26700 -77.90860 30 ft 0 kts 233°